Regional Weather Roundup
Issued by NWS

Home | Current Version | Previous Version | Text Only | Print | Product List | Glossary Off
Versions: 1 2 3 4 5 6 7 8 9 10 11 12 13 14 15 16 17 18 19 20 21 22 23 24 25 26 27 28 29 30 31 32 33 34 35 36 37 38 39 40 41 42 43 44 45 46 47 48 49 50

296
ASUS45 KSLC 280410
RWRUT

UTAH REGIONAL WEATHER ROUNDUP
NATIONAL WEATHER SERVICE SALT LAKE CITY UT
1000 PM MDT SAT AUG 27 2016

UTZ001>011-023>025-280500-

NORTHERN UTAH

CITY           SKY/WX    TMP DP  RH WIND       PRES   REMARKS
BRIGHAM CITY     N/A     68  30  24 CALM      30.02R
HILL AFB       CLEAR     70  26  19 E13       30.05R
LOGAN          PTCLDY    64  35  34 CALM      30.03R
OGDEN          CLEAR     70  30  22 S9        30.02R
PROVO AIRPORT  CLEAR     72  52  49 E6        30.06R
SALT LAKE CITY PTCLDY    74  32  21 SE9       30.01R
VERNAL         CLOUDY    65  46  50 N5        30.12R
WENDOVER       CLEAR     73  28  19 CALM      30.02R
HEBER CITY     CLEAR     57  34  41 SE5       30.12R
WEST JORDAN    CLEAR     69  32  25 SW8       30.05S

$$

UTZ012>022-026-027-280500-

SOUTHERN/CENTRAL UTAH

CITY           SKY/WX    TMP DP  RH WIND       PRES   REMARKS
BLANDING       MOCLDY    64  47  54 NE7       30.29S
BRYCE CANYON   CLOUDY    53  50  89 CALM      30.30R
CEDAR CITY     MOCLDY    59  49  69 S7        30.18R
MILFORD        PTCLDY    61  50  67 S8        30.13R
MOAB/CYNLANDS  CLOUDY    72  47  40 SE5       30.11R
PRICE          PTCLDY    65  39  38 E6        30.19R
ST GEORGE      CLEAR     70  57  64 SE6       30.08R

$$

REGIONAL REPORTS     COLORADO/ARIZONA

CITY           SKY/WX    TMP DP  RH WIND       PRES   REMARKS
CRAIG, CO      CLEAR     55  41  59 CALM      30.20R
GRAND JUNCTION CLOUDY    68  46  45 E9        30.15R
RIFLE          CLOUDY    65  49  56 CALM      30.19R
MONTROSE       CLOUDY    63  47  55 SE6       30.23R
CORTEZ         CLOUDY    61  52  72 NE5       30.24R
PAGE, AZ       MOCLDY    69  52  54 NW3       30.12S
GRAND CANYON   LGT RAIN  55  49  80 CALM      30.27R
KINGMAN        PTCLDY    66  60  81 SE7       30.06R
FLAGSTAFF      CLOUDY    55  49  80 S3        30.28R

$$

REGIONAL REPORTS    NEVADA/IDAHO/WYOMING

CITY           SKY/WX    TMP DP  RH WIND       PRES   REMARKS
LAS VEGAS, NV  MOCLDY    84  46  26 E12       29.94R
ELY            CLEAR     55  15  20 S9        30.15R
ELKO           CLEAR     69  21  16 CALM      30.07R
POCATELLO, ID  CLOUDY    65  29  25 S13       30.00R
BURLEY         CLEAR     60  46  59 CALM      29.97R
EVANSTON, WY   CLEAR     57  20  23 SW10      30.23R
ROCK SPRINGS   CLEAR     64  18  17 SW9       30.19R

$$




USA.gov is the U.S. government's official web portal to all federal, state and local government web resources and services.